カタログに戻る

JILIN-1 GAOFEN 07B 03 XING

運用中科学SSO
NORAD 68695·PAYLOAD·🇨🇳 China
この衛星名は、まだ公式ソースで確認されていません。

打ち上げ Apr 14, 2026 から Jiuquan Satellite Launch Center

Loading…

次のパス (今後24時間)

TLE

最新Source: Space-Track

元期: Sep 14, 2026, 15:24 UTC

1 68695U 26080E   26257.64198719  .00004171  00000-0  26752-3 0  9995
2 68695  97.6570 333.1035 0017312 124.1415 236.1459 15.08938394 23117

AllMySatでJILIN-1 GAOFEN 07B 03 XINGをリアルタイム追跡

Download on the App Store